DLH1834 EDDM-LEMG

Flight info

Callsign DLH1834
Flight time 2h 40m
Altitude 24000
Route MERSI5S MERSI Y100 UMTEX/N0454F350 Y100 TRA DCT LUTIX DCT BENOT DCT NEMOS DCT NINTU DCT MEBAK DCT REPSI DCT LERGA DCT MINSO DCT NARAK DCT AGN DCT MAQAB DCT TIVLI DCT ELSAP DCT ZAR DCT EXEMU DCT PISUS DCT EDIMU DCT ADUXO DCT NUSGO DCT OBIBO DCT NASOS L27 BLN BLN1A
Aircraft A321/M-SDE3FGHIRWY/LB1

Departure

Time 2026-05-07 13:01
Airport Munich Airport (EDDM)

Arrival

Time 2026-05-07 15:41
Airport Málaga-Costa del Sol Airport (LEMG)
Time Latitude Longitude Altitude Speed Heading
2026-05-07 12:11 48.35330 11.80280 1486 ft 0 kts 83°
2026-05-07 12:51 48.35329 11.80273 1485 ft 1 kts 83°
2026-05-07 12:51 48.35328 11.80259 1471 ft 1 kts 83°
2026-05-07 12:52 48.35327 11.80244 1476 ft 2 kts 83°
2026-05-07 12:52 48.35325 11.80229 1476 ft 1 kts 89°
2026-05-07 12:52 48.35326 11.80214 1476 ft 1 kts 110°
2026-05-07 12:52 48.35329 11.80199 1469 ft 1 kts 150°
2026-05-07 12:53 48.35338 11.80194 1473 ft 1 kts 175°
2026-05-07 12:53 48.35341 11.80194 1474 ft 0 kts 174°
2026-05-07 12:55 48.35331 11.80196 1470 ft 5 kts 172°
2026-05-07 12:56 48.35279 11.80206 1482 ft 9 kts 173°
2026-05-07 12:56 48.35214 11.80218 1483 ft 10 kts 173°
2026-05-07 12:56 48.35139 11.80229 1476 ft 12 kts 182°
2026-05-07 12:56 48.35104 11.80126 1485 ft 13 kts 263°
2026-05-07 12:57 48.35093 11.79987 1485 ft 14 kts 263°
2026-05-07 12:57 48.35082 11.79844 1474 ft 10 kts 263°
2026-05-07 12:57 48.35074 11.79731 1483 ft 11 kts 263°
2026-05-07 12:57 48.35013 11.79667 1485 ft 11 kts 175°
2026-05-07 12:58 48.34933 11.79680 1473 ft 12 kts 173°
2026-05-07 12:58 48.34841 11.79696 1484 ft 12 kts 173°
2026-05-07 12:58 48.34810 11.79800 1478 ft 15 kts 84°
2026-05-07 12:58 48.34823 11.79963 1485 ft 17 kts 83°
2026-05-07 12:59 48.34821 11.80139 1481 ft 17 kts 118°
2026-05-07 12:59 48.34738 11.80241 1478 ft 15 kts 172°
2026-05-07 12:59 48.34654 11.80256 1484 ft 13 kts 173°
2026-05-07 12:59 48.34560 11.80272 1477 ft 15 kts 173°
2026-05-07 13:00 48.34460 11.80180 1482 ft 28 kts 257°
2026-05-07 13:00 48.34417 11.79636 1486 ft 85 kts 264°
2026-05-07 13:00 48.34326 11.78451 1486 ft 142 kts 263°
2026-05-07 13:00 48.34191 11.76776 1720 ft 168 kts 265°
2026-05-07 13:01 48.34068 11.75047 2525 ft 167 kts 265°
2026-05-07 13:01 48.33944 11.73282 3060 ft 176 kts 265°
2026-05-07 13:01 48.33803 11.71342 3231 ft 198 kts 265°
2026-05-07 13:01 48.33638 11.69179 3466 ft 217 kts 265°
2026-05-07 13:02 48.33460 11.66920 4051 ft 218 kts 264°
2026-05-07 13:02 48.33276 11.64651 4655 ft 221 kts 264°
2026-05-07 13:02 48.33096 11.62262 4914 ft 242 kts 264°
2026-05-07 13:02 48.32909 11.59685 5392 ft 252 kts 264°
2026-05-07 13:03 48.32719 11.57034 6109 ft 256 kts 264°
2026-05-07 13:03 48.32527 11.54365 6793 ft 259 kts 264°
2026-05-07 13:03 48.32332 11.51663 7495 ft 261 kts 264°
2026-05-07 13:03 48.32135 11.48943 8216 ft 263 kts 264°
2026-05-07 13:04 48.31921 11.46193 8948 ft 267 kts 260°
2026-05-07 13:04 48.31355 11.43520 9642 ft 271 kts 250°
2026-05-07 13:04 48.30683 11.40860 10281 ft 277 kts 250°
2026-05-07 13:04 48.29974 11.38050 10415 ft 298 kts 250°
2026-05-07 13:05 48.29222 11.35080 10547 ft 317 kts 250°
2026-05-07 13:05 48.28418 11.31905 10768 ft 332 kts 250°
2026-05-07 13:05 48.27578 11.28592 11258 ft 337 kts 250°
2026-05-07 13:05 48.26737 11.25290 11831 ft 340 kts 250°
2026-05-07 13:06 48.25898 11.22002 12426 ft 343 kts 250°
2026-05-07 13:06 48.25031 11.18610 13045 ft 346 kts 250°
2026-05-07 13:06 48.24177 11.15274 13642 ft 348 kts 250°
2026-05-07 13:06 48.23308 11.11874 14183 ft 351 kts 249°
2026-05-07 13:07 48.22432 11.08447 14693 ft 353 kts 249°
2026-05-07 13:07 48.21547 11.04992 15195 ft 356 kts 249°
2026-05-07 13:07 48.20655 11.01519 15686 ft 359 kts 249°
2026-05-07 13:07 48.19753 10.98014 16183 ft 362 kts 249°
2026-05-07 13:08 48.18843 10.94485 16681 ft 365 kts 249°
2026-05-07 13:08 48.17924 10.90926 17163 ft 368 kts 249°
2026-05-07 13:08 48.16997 10.87349 17630 ft 371 kts 249°
2026-05-07 13:08 48.16056 10.83726 18090 ft 374 kts 249°
2026-05-07 13:09 48.15109 10.80085 18500 ft 377 kts 249°
2026-05-07 13:09 48.14152 10.76416 18878 ft 380 kts 249°
2026-05-07 13:09 48.13186 10.72720 19274 ft 382 kts 249°
2026-05-07 13:09 48.12373 10.69611 19604 ft 385 kts 250°
2026-05-07 13:10 48.11396 10.65868 19997 ft 387 kts 250°
2026-05-07 13:10 48.10413 10.62103 20384 ft 390 kts 250°
2026-05-07 13:10 48.09421 10.58312 20759 ft 392 kts 250°
2026-05-07 13:10 48.08423 10.54503 21141 ft 395 kts 250°
2026-05-07 13:11 48.07430 10.50721 21519 ft 397 kts 250°
2026-05-07 13:11 48.06416 10.46868 21912 ft 400 kts 250°
2026-05-07 13:11 48.05394 10.42986 22299 ft 402 kts 250°
2026-05-07 13:11 48.04367 10.39089 22671 ft 405 kts 250°
2026-05-07 13:12 48.03331 10.35164 23048 ft 407 kts 250°
2026-05-07 13:12 48.02287 10.31225 23429 ft 409 kts 250°
2026-05-07 13:12 48.01232 10.27255 23759 ft 412 kts 249°
2026-05-07 13:12 48.00172 10.23271 24076 ft 414 kts 249°
2026-05-07 13:13 47.99102 10.19266 24394 ft 416 kts 249°
2026-05-07 13:13 47.98027 10.15249 24709 ft 418 kts 249°
2026-05-07 13:13 47.96945 10.11210 25014 ft 420 kts 249°
2026-05-07 13:13 47.95859 10.07148 25339 ft 422 kts 249°
2026-05-07 13:14 47.94768 10.03070 25682 ft 424 kts 249°
2026-05-07 13:14 47.93670 9.98972 25992 ft 426 kts 249°
2026-05-07 13:14 47.92564 9.94860 26306 ft 428 kts 249°
2026-05-07 13:14 47.91450 9.90728 26576 ft 430 kts 249°
2026-05-07 13:15 47.90332 9.86593 26701 ft 431 kts 249°
2026-05-07 13:15 47.89207 9.82451 26833 ft 431 kts 249°
2026-05-07 13:15 47.88081 9.78305 26991 ft 433 kts 249°
2026-05-07 13:15 47.86951 9.74152 27037 ft 433 kts 249°
2026-05-07 13:16 47.85821 9.69999 27026 ft 433 kts 249°
2026-05-07 13:16 47.84687 9.65842 27031 ft 432 kts 249°
2026-05-07 13:16 47.83713 9.61614 27031 ft 431 kts 257°
2026-05-07 13:16 47.83130 9.57251 27032 ft 431 kts 261°
2026-05-07 13:17 47.82609 9.52855 27161 ft 432 kts 261°
2026-05-07 13:17 47.82081 9.48440 27478 ft 434 kts 261°
2026-05-07 13:17 47.81549 9.44013 27782 ft 436 kts 261°
2026-05-07 13:17 47.81013 9.39564 28066 ft 438 kts 261°
2026-05-07 13:18 47.80469 9.35094 28342 ft 440 kts 260°
2026-05-07 13:18 47.79920 9.30615 28606 ft 441 kts 260°
2026-05-07 13:18 47.79367 9.26120 28861 ft 443 kts 260°
2026-05-07 13:18 47.78810 9.21607 29105 ft 445 kts 260°
2026-05-07 13:19 47.78252 9.17071 29336 ft 446 kts 260°
2026-05-07 13:19 47.77694 9.12533 29621 ft 446 kts 260°
2026-05-07 13:19 47.77134 9.08007 29958 ft 445 kts 260°
2026-05-07 13:19 47.76573 9.03489 30259 ft 444 kts 260°
2026-05-07 13:20 47.76008 8.98980 30548 ft 443 kts 260°
2026-05-07 13:20 47.75443 8.94487 30818 ft 442 kts 260°
2026-05-07 13:20 47.74885 8.90054 31079 ft 442 kts 259°
2026-05-07 13:20 47.74319 8.85571 31336 ft 441 kts 260°
2026-05-07 13:21 47.73755 8.81107 31614 ft 440 kts 259°
2026-05-07 13:21 47.73190 8.76643 31887 ft 439 kts 259°
2026-05-07 13:21 47.72627 8.72195 32160 ft 438 kts 259°
2026-05-07 13:21 47.72062 8.67762 32434 ft 436 kts 259°
2026-05-07 13:22 47.71495 8.63344 32703 ft 435 kts 259°
2026-05-07 13:22 47.70926 8.58934 32955 ft 434 kts 259°
2026-05-07 13:22 47.70355 8.54536 33208 ft 433 kts 259°
2026-05-07 13:22 47.69784 8.50152 33458 ft 432 kts 259°
2026-05-07 13:23 47.69039 8.45833 33697 ft 432 kts 251°
2026-05-07 13:23 47.67836 8.41751 33925 ft 432 kts 242°
2026-05-07 13:23 47.66209 8.38002 34135 ft 433 kts 236°
2026-05-07 13:23 47.64450 8.34388 34312 ft 433 kts 236°
2026-05-07 13:24 47.62689 8.30764 34481 ft 432 kts 236°
2026-05-07 13:24 47.60934 8.27145 34646 ft 432 kts 236°
2026-05-07 13:24 47.59184 8.23536 34814 ft 432 kts 236°
2026-05-07 13:24 47.57430 8.19920 34975 ft 432 kts 236°
2026-05-07 13:25 47.53921 8.12716 35037 ft 431 kts 236°
2026-05-07 13:25 47.50411 8.05533 35029 ft 430 kts 236°
2026-05-07 13:26 47.46899 7.98364 35025 ft 430 kts 236°
2026-05-07 13:26 47.43386 7.91211 35022 ft 430 kts 236°
2026-05-07 13:27 47.39898 7.84124 35025 ft 430 kts 236°
2026-05-07 13:27 47.36377 7.76986 35032 ft 430 kts 236°
2026-05-07 13:28 47.32850 7.69858 35039 ft 430 kts 235°
2026-05-07 13:28 47.29317 7.62744 35044 ft 430 kts 236°
2026-05-07 13:29 47.25784 7.55643 35049 ft 430 kts 236°
2026-05-07 13:29 47.22248 7.48551 35049 ft 429 kts 236°
2026-05-07 13:30 47.18706 7.41479 35053 ft 429 kts 236°
2026-05-07 13:30 47.15150 7.34445 35050 ft 428 kts 234°
2026-05-07 13:31 47.11452 7.27577 35049 ft 428 kts 233°
2026-05-07 13:31 47.07692 7.20794 35059 ft 428 kts 233°
2026-05-07 13:32 47.03958 7.14001 35057 ft 428 kts 233°
2026-05-07 13:32 47.00248 7.07188 35049 ft 427 kts 234°
2026-05-07 13:33 46.96542 7.00387 35041 ft 427 kts 234°
2026-05-07 13:33 46.93453 6.94756 35051 ft 427 kts 233°
2026-05-07 13:34 46.87865 6.84631 35052 ft 426 kts 233°
2026-05-07 13:35 46.84143 6.77889 35052 ft 426 kts 233°
2026-05-07 13:35 46.80411 6.71170 35047 ft 426 kts 233°
2026-05-07 13:36 46.76682 6.64465 35048 ft 425 kts 233°
2026-05-07 13:36 46.72959 6.57779 35039 ft 425 kts 233°
2026-05-07 13:37 46.69235 6.51111 35038 ft 424 kts 233°
2026-05-07 13:37 46.65511 6.44457 35041 ft 423 kts 233°
2026-05-07 13:38 46.61784 6.37821 35045 ft 423 kts 233°
2026-05-07 13:38 46.58082 6.31245 35040 ft 423 kts 233°
2026-05-07 13:39 46.54333 6.24601 35039 ft 422 kts 233°
2026-05-07 13:39 46.50613 6.18012 35037 ft 422 kts 233°
2026-05-07 13:40 46.46922 6.11483 35035 ft 421 kts 233°
2026-05-07 13:40 46.43199 6.04927 35033 ft 421 kts 233°
2026-05-07 13:41 46.39474 5.98397 35029 ft 420 kts 233°
2026-05-07 13:41 46.35756 5.91881 35025 ft 419 kts 233°
2026-05-07 13:42 46.32040 5.85378 35029 ft 419 kts 232°
2026-05-07 13:42 46.28328 5.78892 35031 ft 418 kts 232°
2026-05-07 13:43 46.24616 5.72424 35032 ft 418 kts 232°
2026-05-07 13:43 46.20902 5.65982 35034 ft 417 kts 232°
2026-05-07 13:44 46.17184 5.59558 35040 ft 417 kts 232°
2026-05-07 13:44 46.13614 5.52997 35034 ft 414 kts 237°
2026-05-07 13:45 46.10372 5.46193 35036 ft 414 kts 237°
2026-05-07 13:45 46.07091 5.39365 35031 ft 414 kts 237°
2026-05-07 13:46 46.03805 5.32558 35032 ft 414 kts 237°
2026-05-07 13:46 46.00518 5.25761 35034 ft 414 kts 237°
2026-05-07 13:47 45.97234 5.18977 35032 ft 413 kts 237°
2026-05-07 13:47 45.93952 5.12189 35031 ft 413 kts 237°
2026-05-07 13:48 45.90666 5.05417 35031 ft 413 kts 237°
2026-05-07 13:48 45.87370 4.98659 35034 ft 413 kts 237°
2026-05-07 13:49 45.84076 4.91910 35038 ft 413 kts 237°
2026-05-07 13:49 45.80779 4.85165 35042 ft 413 kts 237°
2026-05-07 13:50 45.77477 4.78430 35039 ft 413 kts 237°
2026-05-07 13:50 45.74163 4.71712 35048 ft 413 kts 237°
2026-05-07 13:51 45.70867 4.65041 35032 ft 413 kts 236°
2026-05-07 13:51 45.67557 4.58324 35030 ft 413 kts 236°
2026-05-07 13:52 45.64237 4.51616 35041 ft 413 kts 236°
2026-05-07 13:52 45.60904 4.44921 35041 ft 413 kts 236°
2026-05-07 13:53 45.57572 4.38226 35045 ft 414 kts 236°
2026-05-07 13:53 45.54240 4.31534 35044 ft 414 kts 236°
2026-05-07 13:54 45.50904 4.24848 35047 ft 414 kts 236°
2026-05-07 13:54 45.47562 4.18173 35039 ft 414 kts 236°
2026-05-07 13:55 45.44207 4.11504 35035 ft 414 kts 236°
2026-05-07 13:55 45.40855 4.04849 35032 ft 414 kts 236°
2026-05-07 13:56 45.37498 3.98199 35024 ft 414 kts 235°
2026-05-07 13:56 45.34159 3.91602 35020 ft 414 kts 235°
2026-05-07 13:57 45.30792 3.84977 35023 ft 413 kts 235°
2026-05-07 13:57 45.27423 3.78349 35024 ft 413 kts 235°
2026-05-07 13:58 45.24068 3.71726 35028 ft 414 kts 236°
2026-05-07 13:58 45.20771 3.65033 35027 ft 414 kts 236°
2026-05-07 13:59 45.17489 3.58319 35029 ft 414 kts 236°
2026-05-07 13:59 45.14197 3.51629 35025 ft 414 kts 235°
2026-05-07 14:00 45.10881 3.44949 35022 ft 415 kts 235°
2026-05-07 14:00 45.07562 3.38274 35014 ft 415 kts 235°
2026-05-07 14:01 45.04240 3.31595 35005 ft 415 kts 235°
2026-05-07 14:01 45.00916 3.24928 35002 ft 415 kts 235°
2026-05-07 14:02 44.97604 3.18313 35004 ft 415 kts 235°
2026-05-07 14:02 44.94269 3.11655 35009 ft 415 kts 235°
2026-05-07 14:03 44.90932 3.05003 35009 ft 416 kts 234°
2026-05-07 14:03 44.87579 2.98361 35011 ft 416 kts 234°
2026-05-07 14:04 44.84227 2.91718 35013 ft 416 kts 235°
2026-05-07 14:04 44.81033 2.84913 35014 ft 416 kts 237°
2026-05-07 14:05 44.77940 2.78022 35019 ft 417 kts 237°
2026-05-07 14:05 44.74816 2.71152 35017 ft 417 kts 237°
2026-05-07 14:06 44.71649 2.64318 35018 ft 417 kts 236°
2026-05-07 14:06 44.68468 2.57488 35018 ft 417 kts 236°
2026-05-07 14:07 44.65295 2.50659 35019 ft 418 kts 236°
2026-05-07 14:07 44.62132 2.43873 35019 ft 418 kts 236°
2026-05-07 14:08 44.58936 2.37058 35019 ft 418 kts 236°
2026-05-07 14:08 44.55732 2.30233 35023 ft 419 kts 236°
2026-05-07 14:09 44.52534 2.23423 35023 ft 419 kts 236°
2026-05-07 14:09 44.49330 2.16602 35026 ft 419 kts 236°
2026-05-07 14:10 44.46123 2.09794 35026 ft 419 kts 236°
2026-05-07 14:10 44.42903 2.02995 35025 ft 419 kts 236°
2026-05-07 14:11 44.39680 1.96205 35027 ft 419 kts 236°
2026-05-07 14:11 44.36452 1.89414 35025 ft 419 kts 236°
2026-05-07 14:12 44.33250 1.82677 35024 ft 419 kts 236°
2026-05-07 14:12 44.30014 1.75899 35023 ft 419 kts 236°
2026-05-07 14:13 44.26816 1.69096 35020 ft 419 kts 237°
2026-05-07 14:13 44.23688 1.62230 35018 ft 420 kts 237°
2026-05-07 14:14 44.20560 1.55365 35014 ft 420 kts 237°
2026-05-07 14:14 44.17404 1.48510 35012 ft 420 kts 236°
2026-05-07 14:15 44.14239 1.41680 35012 ft 420 kts 236°
2026-05-07 14:15 44.11065 1.34853 35014 ft 420 kts 236°
2026-05-07 14:16 44.07891 1.28034 35013 ft 420 kts 236°
2026-05-07 14:16 44.04715 1.21212 35010 ft 420 kts 236°
2026-05-07 14:17 44.01537 1.14395 35006 ft 420 kts 236°
2026-05-07 14:17 43.98354 1.07588 35002 ft 420 kts 236°
2026-05-07 14:18 43.95163 1.00791 35001 ft 420 kts 236°
2026-05-07 14:18 43.91966 0.94001 35003 ft 420 kts 236°
2026-05-07 14:19 43.88666 0.87394 35003 ft 419 kts 228°
2026-05-07 14:19 43.84417 0.81881 34998 ft 419 kts 221°
2026-05-07 14:20 43.80069 0.76510 34997 ft 419 kts 221°
2026-05-07 14:20 43.75727 0.71128 34998 ft 419 kts 221°
2026-05-07 14:21 43.71377 0.65768 34999 ft 419 kts 221°
2026-05-07 14:21 43.67020 0.60418 34999 ft 419 kts 221°
2026-05-07 14:22 43.62668 0.55080 34996 ft 419 kts 221°
2026-05-07 14:22 43.58320 0.49746 34997 ft 418 kts 221°
2026-05-07 14:23 43.53962 0.44430 34995 ft 418 kts 221°
2026-05-07 14:23 43.49606 0.39124 34993 ft 418 kts 221°
2026-05-07 14:24 43.45278 0.33873 34992 ft 417 kts 221°
2026-05-07 14:24 43.40928 0.28595 34990 ft 417 kts 221°
2026-05-07 14:25 43.36579 0.23327 34995 ft 416 kts 221°
2026-05-07 14:25 43.32233 0.18068 34995 ft 416 kts 221°
2026-05-07 14:26 43.27888 0.12834 35001 ft 415 kts 221°
2026-05-07 14:26 43.23540 0.07609 35000 ft 415 kts 221°
2026-05-07 14:27 43.19938 0.03277 35002 ft 415 kts 221°
2026-05-07 14:27 43.15600 -0.01926 35001 ft 414 kts 221°
2026-05-07 14:28 43.11262 -0.07117 35002 ft 414 kts 221°
2026-05-07 14:28 43.06922 -0.12303 34995 ft 414 kts 221°
2026-05-07 14:29 43.02592 -0.17479 34993 ft 414 kts 221°
2026-05-07 14:29 42.98261 -0.22643 34990 ft 413 kts 220°
2026-05-07 14:30 42.93921 -0.27790 34986 ft 413 kts 220°
2026-05-07 14:30 42.89612 -0.32894 34984 ft 413 kts 220°
2026-05-07 14:31 42.85271 -0.38025 34984 ft 413 kts 220°
2026-05-07 14:31 42.80827 -0.42974 34982 ft 413 kts 212°
2026-05-07 14:32 42.75624 -0.46242 34983 ft 413 kts 202°
2026-05-07 14:32 42.70254 -0.49053 34978 ft 414 kts 202°
2026-05-07 14:33 42.64884 -0.51879 34975 ft 413 kts 202°
2026-05-07 14:33 42.59524 -0.54708 34976 ft 413 kts 202°
2026-05-07 14:34 42.54158 -0.57520 34976 ft 413 kts 202°
2026-05-07 14:34 42.48788 -0.60325 34971 ft 413 kts 202°
2026-05-07 14:35 42.43427 -0.63123 34970 ft 413 kts 202°
2026-05-07 14:35 42.38066 -0.65919 34973 ft 413 kts 202°
2026-05-07 14:36 42.32708 -0.68709 34971 ft 412 kts 202°
2026-05-07 14:36 42.27355 -0.71483 34969 ft 412 kts 202°
2026-05-07 14:37 42.22003 -0.74250 34969 ft 411 kts 202°
2026-05-07 14:37 42.13993 -0.78394 34969 ft 411 kts 202°
2026-05-07 14:38 42.08659 -0.81142 34967 ft 410 kts 202°
2026-05-07 14:38 42.03333 -0.83875 34964 ft 409 kts 202°
2026-05-07 14:39 41.98012 -0.86619 34965 ft 409 kts 202°
2026-05-07 14:39 41.92695 -0.89355 34964 ft 409 kts 202°
2026-05-07 14:40 41.87379 -0.92077 34966 ft 409 kts 202°
2026-05-07 14:40 41.82061 -0.94794 34969 ft 409 kts 202°
2026-05-07 14:41 41.76746 -0.97510 34965 ft 409 kts 202°
2026-05-07 14:41 41.71424 -1.00221 34965 ft 409 kts 202°
2026-05-07 14:42 41.66134 -1.03025 34966 ft 408 kts 208°
2026-05-07 14:42 41.61375 -1.07148 34962 ft 408 kts 214°
2026-05-07 14:43 41.56691 -1.11463 34960 ft 409 kts 214°
2026-05-07 14:43 41.51996 -1.15764 34959 ft 410 kts 214°
2026-05-07 14:44 41.47292 -1.20069 34960 ft 410 kts 214°
2026-05-07 14:44 41.42578 -1.24374 34959 ft 411 kts 214°
2026-05-07 14:45 41.37853 -1.28682 34956 ft 412 kts 214°
2026-05-07 14:45 41.33122 -1.32995 34956 ft 413 kts 214°
2026-05-07 14:46 41.28400 -1.37283 34949 ft 414 kts 214°
2026-05-07 14:46 41.23635 -1.41607 34951 ft 415 kts 214°
2026-05-07 14:47 41.18860 -1.45939 34954 ft 416 kts 214°
2026-05-07 14:47 41.14070 -1.50279 34938 ft 417 kts 215°
2026-05-07 14:48 41.09268 -1.54623 34939 ft 418 kts 215°
2026-05-07 14:48 41.04452 -1.58967 34955 ft 420 kts 215°
2026-05-07 14:49 40.99612 -1.63316 34955 ft 421 kts 215°
2026-05-07 14:49 40.94733 -1.67702 34957 ft 422 kts 215°
2026-05-07 14:50 40.89909 -1.72037 34955 ft 422 kts 215°
2026-05-07 14:50 40.85010 -1.76419 34962 ft 423 kts 215°
2026-05-07 14:51 40.80136 -1.80770 34966 ft 423 kts 215°
2026-05-07 14:51 40.75287 -1.85093 34966 ft 423 kts 215°
2026-05-07 14:52 40.70408 -1.89436 34977 ft 423 kts 215°
2026-05-07 14:52 40.65524 -1.93778 34980 ft 423 kts 215°
2026-05-07 14:53 40.60641 -1.98111 34985 ft 423 kts 215°
2026-05-07 14:53 40.55758 -2.02433 34982 ft 423 kts 215°
2026-05-07 14:54 40.50861 -2.06755 34984 ft 424 kts 216°
2026-05-07 14:54 40.45971 -2.11065 34989 ft 424 kts 215°
2026-05-07 14:55 40.41063 -2.15375 34990 ft 424 kts 215°
2026-05-07 14:55 40.36164 -2.19677 34988 ft 424 kts 216°
2026-05-07 14:56 40.31257 -2.23989 34985 ft 424 kts 216°
2026-05-07 14:56 40.26351 -2.28296 34988 ft 425 kts 216°
2026-05-07 14:57 40.21435 -2.32590 34986 ft 425 kts 216°
2026-05-07 14:57 40.16517 -2.36883 34988 ft 425 kts 216°
2026-05-07 14:58 40.11596 -2.41173 34995 ft 425 kts 216°
2026-05-07 14:58 40.06670 -2.45454 34994 ft 425 kts 216°
2026-05-07 14:59 40.01739 -2.49732 34993 ft 426 kts 216°
2026-05-07 14:59 39.96806 -2.54002 34991 ft 426 kts 216°
2026-05-07 15:00 39.91869 -2.58274 34987 ft 426 kts 216°
2026-05-07 15:00 39.86933 -2.62537 34987 ft 426 kts 217°
2026-05-07 15:01 39.81981 -2.66798 34986 ft 427 kts 217°
2026-05-07 15:01 39.77017 -2.71067 34982 ft 427 kts 217°
2026-05-07 15:02 39.72055 -2.75326 34984 ft 428 kts 217°
2026-05-07 15:02 39.67083 -2.79591 34982 ft 428 kts 218°
2026-05-07 15:03 39.62104 -2.83849 34976 ft 429 kts 218°
2026-05-07 15:03 39.57122 -2.88116 34973 ft 429 kts 218°
2026-05-07 15:04 39.52134 -2.92375 34969 ft 430 kts 218°
2026-05-07 15:04 39.47126 -2.96634 34964 ft 431 kts 218°
2026-05-07 15:05 39.42117 -3.00898 34967 ft 431 kts 219°
2026-05-07 15:05 39.36687 -3.04354 34962 ft 441 kts 206°
2026-05-07 15:06 39.30973 -3.07119 34948 ft 441 kts 207°
2026-05-07 15:06 39.25226 -3.09924 34954 ft 442 kts 207°
2026-05-07 15:07 39.19466 -3.12724 34950 ft 442 kts 207°
2026-05-07 15:07 39.13704 -3.15513 34954 ft 443 kts 207°
2026-05-07 15:08 39.07937 -3.18307 34953 ft 443 kts 207°
2026-05-07 15:08 39.02168 -3.21089 34955 ft 443 kts 207°
2026-05-07 15:09 38.96395 -3.23867 34957 ft 443 kts 208°
2026-05-07 15:09 38.90626 -3.26650 34955 ft 443 kts 208°
2026-05-07 15:10 38.84855 -3.29420 34954 ft 443 kts 208°
2026-05-07 15:10 38.80022 -3.31734 34949 ft 442 kts 208°
2026-05-07 15:11 38.74259 -3.34503 34946 ft 442 kts 208°
2026-05-07 15:11 38.68493 -3.37265 34945 ft 442 kts 209°
2026-05-07 15:12 38.62728 -3.40010 34945 ft 442 kts 209°
2026-05-07 15:12 38.56962 -3.42747 34848 ft 442 kts 209°
2026-05-07 15:13 38.54086 -3.44111 34582 ft 440 kts 210°
2026-05-07 15:13 38.51218 -3.45471 34323 ft 439 kts 210°
2026-05-07 15:13 38.48354 -3.46829 34059 ft 439 kts 210°
2026-05-07 15:13 38.45490 -3.48189 33782 ft 439 kts 210°
2026-05-07 15:14 38.42625 -3.49548 33476 ft 440 kts 210°
2026-05-07 15:14 38.39750 -3.50911 33191 ft 441 kts 210°
2026-05-07 15:14 38.36909 -3.52258 32977 ft 442 kts 210°
2026-05-07 15:14 38.33991 -3.53642 32909 ft 442 kts 210°
2026-05-07 15:15 38.28259 -3.56353 32917 ft 442 kts 210°
2026-05-07 15:15 38.22483 -3.59061 32918 ft 442 kts 210°
2026-05-07 15:16 38.16991 -3.62258 32921 ft 424 kts 224°
2026-05-07 15:16 38.14700 -3.64531 32911 ft 412 kts 232°
2026-05-07 15:16 38.12777 -3.67163 32656 ft 402 kts 240°
2026-05-07 15:17 38.11193 -3.70054 32394 ft 398 kts 244°
2026-05-07 15:17 38.09644 -3.72983 32124 ft 400 kts 244°
2026-05-07 15:17 38.08081 -3.75907 31866 ft 401 kts 243°
2026-05-07 15:17 38.06508 -3.78830 31606 ft 401 kts 243°
2026-05-07 15:18 38.04933 -3.81744 31351 ft 400 kts 243°
2026-05-07 15:18 38.03362 -3.84650 31095 ft 399 kts 243°
2026-05-07 15:18 38.01792 -3.87558 30838 ft 399 kts 243°
2026-05-07 15:18 38.00226 -3.90457 30602 ft 398 kts 243°
2026-05-07 15:19 37.98665 -3.93355 30354 ft 397 kts 243°
2026-05-07 15:19 37.97111 -3.96240 30106 ft 396 kts 243°
2026-05-07 15:19 37.95558 -3.99118 29847 ft 395 kts 243°
2026-05-07 15:19 37.94006 -4.01986 29562 ft 394 kts 243°
2026-05-07 15:20 37.92461 -4.04844 29271 ft 393 kts 243°
2026-05-07 15:20 37.90917 -4.07695 28853 ft 391 kts 242°
2026-05-07 15:20 37.89383 -4.10524 28448 ft 389 kts 242°
2026-05-07 15:20 37.87858 -4.13333 28035 ft 386 kts 242°
2026-05-07 15:21 37.86340 -4.16129 27639 ft 384 kts 242°
2026-05-07 15:21 37.84828 -4.18913 27250 ft 383 kts 242°
2026-05-07 15:21 37.83324 -4.21680 26863 ft 381 kts 242°
2026-05-07 15:21 37.81829 -4.24429 26472 ft 379 kts 242°
2026-05-07 15:22 37.80338 -4.27165 26099 ft 377 kts 242°
2026-05-07 15:22 37.78850 -4.29891 25702 ft 376 kts 242°
2026-05-07 15:22 37.77368 -4.32601 25287 ft 373 kts 242°
2026-05-07 15:22 37.75896 -4.35294 24876 ft 372 kts 242°
2026-05-07 15:23 37.74449 -4.37943 24426 ft 370 kts 242°
2026-05-07 15:23 37.72991 -4.40606 23959 ft 368 kts 242°
2026-05-07 15:23 37.71537 -4.43254 23497 ft 366 kts 242°
2026-05-07 15:23 37.70095 -4.45886 22958 ft 364 kts 241°
2026-05-07 15:24 37.68576 -4.48446 22418 ft 367 kts 232°
2026-05-07 15:24 37.66525 -4.50422 21889 ft 379 kts 213°
2026-05-07 15:24 37.63986 -4.51469 21373 ft 391 kts 196°
2026-05-07 15:24 37.61292 -4.51991 20869 ft 391 kts 194°
2026-05-07 15:25 37.58607 -4.52474 20362 ft 389 kts 194°
2026-05-07 15:25 37.55934 -4.52939 19881 ft 387 kts 193°
2026-05-07 15:25 37.53279 -4.53399 19400 ft 384 kts 193°
2026-05-07 15:25 37.50639 -4.53862 18924 ft 381 kts 193°
2026-05-07 15:26 37.48023 -4.54325 18403 ft 379 kts 193°
2026-05-07 15:26 37.45415 -4.54790 17828 ft 377 kts 193°
2026-05-07 15:26 37.42822 -4.55258 17213 ft 375 kts 193°
2026-05-07 15:26 37.40245 -4.55729 16596 ft 373 kts 192°
2026-05-07 15:27 37.37676 -4.56201 15904 ft 373 kts 192°
2026-05-07 15:27 37.35103 -4.56673 15236 ft 373 kts 191°
2026-05-07 15:27 37.32538 -4.57141 14575 ft 373 kts 191°
2026-05-07 15:27 37.29978 -4.57602 13930 ft 371 kts 190°
2026-05-07 15:28 37.27469 -4.58047 13229 ft 354 kts 189°
2026-05-07 15:28 37.25071 -4.58167 12525 ft 337 kts 181°
2026-05-07 15:28 37.22778 -4.58140 11834 ft 322 kts 181°
2026-05-07 15:28 37.20595 -4.58118 11343 ft 305 kts 181°
2026-05-07 15:29 37.18509 -4.58098 10927 ft 298 kts 182°
2026-05-07 15:29 37.16465 -4.58082 10556 ft 296 kts 181°
2026-05-07 15:29 37.14435 -4.58278 10234 ft 289 kts 197°
2026-05-07 15:29 37.12636 -4.59296 9957 ft 282 kts 218°
2026-05-07 15:30 37.11290 -4.61031 9712 ft 278 kts 239°
2026-05-07 15:30 37.10528 -4.63232 9443 ft 275 kts 254°
2026-05-07 15:30 37.09989 -4.65534 9175 ft 275 kts 254°
2026-05-07 15:30 37.09450 -4.67823 8918 ft 274 kts 254°
2026-05-07 15:31 37.08909 -4.70111 8697 ft 273 kts 254°
2026-05-07 15:31 37.08370 -4.72394 8485 ft 273 kts 254°
2026-05-07 15:31 37.07831 -4.74669 8279 ft 272 kts 254°
2026-05-07 15:31 37.07182 -4.76884 8060 ft 271 kts 241°
2026-05-07 15:32 37.05997 -4.78670 7799 ft 266 kts 220°
2026-05-07 15:32 37.04398 -4.79750 7636 ft 259 kts 199°
2026-05-07 15:32 37.02647 -4.80042 7506 ft 251 kts 181°
2026-05-07 15:32 37.00932 -4.80015 7382 ft 241 kts 182°
2026-05-07 15:33 36.99279 -4.79995 7257 ft 236 kts 182°
2026-05-07 15:33 36.97643 -4.79979 7122 ft 235 kts 182°
2026-05-07 15:33 36.96005 -4.79965 6849 ft 235 kts 181°
2026-05-07 15:33 36.94374 -4.79947 6553 ft 233 kts 181°
2026-05-07 15:34 36.92760 -4.79708 6262 ft 235 kts 169°
2026-05-07 15:34 36.91207 -4.79078 5922 ft 234 kts 162°
2026-05-07 15:34 36.89678 -4.78410 5556 ft 232 kts 162°
2026-05-07 15:34 36.88160 -4.77749 5176 ft 230 kts 163°
2026-05-07 15:35 36.86678 -4.77050 4870 ft 226 kts 155°
2026-05-07 15:35 36.85304 -4.76127 4644 ft 223 kts 153°
2026-05-07 15:35 36.83944 -4.75208 4450 ft 222 kts 153°
2026-05-07 15:35 36.82593 -4.74296 4256 ft 219 kts 153°
2026-05-07 15:36 36.81262 -4.73397 4102 ft 214 kts 153°
2026-05-07 15:36 36.79973 -4.72527 3918 ft 208 kts 153°
2026-05-07 15:36 36.78708 -4.71676 3749 ft 206 kts 153°
2026-05-07 15:36 36.77549 -4.70651 3549 ft 206 kts 135°
2026-05-07 15:37 36.76786 -4.69146 3300 ft 204 kts 121°
2026-05-07 15:37 36.76152 -4.67610 3046 ft 196 kts 121°
2026-05-07 15:37 36.75552 -4.66161 2791 ft 185 kts 122°
2026-05-07 15:37 36.74970 -4.64769 2574 ft 178 kts 122°
2026-05-07 15:38 36.74416 -4.63443 2334 ft 164 kts 121°
2026-05-07 15:38 36.73913 -4.62239 2114 ft 151 kts 121°
2026-05-07 15:38 36.73442 -4.61116 1912 ft 143 kts 122°
2026-05-07 15:38 36.72985 -4.60027 1728 ft 140 kts 120°
2026-05-07 15:39 36.72536 -4.58956 1538 ft 139 kts 121°
2026-05-07 15:39 36.72091 -4.57899 1368 ft 140 kts 121°
2026-05-07 15:39 36.71638 -4.56818 1161 ft 140 kts 120°
2026-05-07 15:39 36.71187 -4.55740 976 ft 139 kts 118°
2026-05-07 15:40 36.70742 -4.54682 791 ft 138 kts 118°
2026-05-07 15:40 36.70293 -4.53613 597 ft 140 kts 118°
2026-05-07 15:40 36.69846 -4.52552 435 ft 139 kts 116°
2026-05-07 15:40 36.69406 -4.51498 208 ft 136 kts 117°
2026-05-07 15:41 36.68970 -4.50459 55 ft 132 kts 117°
2026-05-07 15:41 36.68597 -4.49571 47 ft 94 kts 118°
2026-05-07 15:41 36.68386 -4.49078 46 ft 36 kts 124°
2026-05-07 15:41 36.68227 -4.48893 41 ft 16 kts 147°
2026-05-07 15:42 36.68136 -4.48848 39 ft 8 kts 209°
2026-05-07 15:42 36.68134 -4.48911 40 ft 11 kts 295°
2026-05-07 15:42 36.68172 -4.49002 38 ft 12 kts 297°
2026-05-07 15:42 36.68214 -4.49103 40 ft 14 kts 297°
2026-05-07 15:43 36.68253 -4.49196 40 ft 7 kts 297°
2026-05-07 15:43 36.68255 -4.49200 40 ft 0 kts 297°
2026-05-07 15:44 36.68259 -4.49209 40 ft 3 kts 297°
2026-05-07 15:44 36.68275 -4.49249 41 ft 8 kts 297°
2026-05-07 15:44 36.68262 -4.49338 39 ft 16 kts 225°
2026-05-07 15:44 36.68174 -4.49436 42 ft 18 kts 221°
2026-05-07 15:45 36.68078 -4.49543 42 ft 20 kts 221°
2026-05-07 15:45 36.67973 -4.49659 42 ft 18 kts 221°
2026-05-07 15:45 36.67887 -4.49752 42 ft 11 kts 214°
2026-05-07 15:45 36.67847 -4.49722 42 ft 7 kts 133°
2026-05-07 15:46 36.67811 -4.49672 42 ft 0 kts 132°
2026-05-07 15:46 36.67803 -4.49660 42 ft 3 kts 132°
2026-05-07 15:46 36.67799 -4.49655 42 ft 0 kts 132°